User: anonymous   Login
Location: Unspecified
(0.0000°N, 0.0000°E)
Time: 10:27:22
(UTC+00:00)
Language:

AIST 2D - Orbit

View from above orbital plane
View from above orbital plane
View from above satellite
View from above satellite

Ground track
Ground track

The orbit data is extracted from the following two-line orbital elements,

1 41465U 16026B   19082.09485734  .00001480  00000-0  47937-4 0  9992
2 41465  97.1999 339.7534 0013105  77.7009  63.3364 15.33510593162076
Epoch (UTC): 23 March 2019 02:16:35
Eccentricity: 0.0013105
inclination: 97.1999°
perigee height: 456 km
apogee height: 474 km
right ascension of ascending node: 339.7534°
argument of perigee: 77.7009°
revolutions per day: 15.33510593
mean anomaly at epoch: 63.3364°
orbit number at epoch: 16207

The dashed part of the orbit path shows where the satellite is in the earth's shadow,  

DLR